Location: Aalen
(48.8330°N, 10.1000°E)
Time: 04:57:22
(UTC+02:00)

Transit 2A - Pass Details

Date: 02 August 2021
Orbit: 594 x 964 km, 66.7° (Epoch: 27 September)

Event Time Altitude Azimuth Distance (km) Brightness Sun altitude
Rises 15:20:03 0° 325° (NW) 3,198 9.2 51.2°
Reaches altitude 10° 15:22:21 10° 328° (NNW) 2,326 8.5 50.9°
Maximum altitude 15:27:43 70° 52° (NE) 888 6.9 50.2°
Drops below altitude 10° 15:33:38 10° 136° (SE) 2,558 8.8 49.5°
Sets 15:36:16 0° 139° (SE) 3,540 9.4 49.1°
